Flag for Canada Weather past 2 weeks in Port Coquitlam, British Columbia, Canada

Now
68 °F

Mild.


Feels Like: 68 °F
Forecast: 54 / 75 °F
Wind: 2 mph from Southwest

Location: P. Meadows Coastal Station

Current Time: May 26, 2015 at 7:25:06 PM

Latest Report: May 26, 2015 at 7:00 PM


Visibility: N/A

Pressure: 29.99 "Hg

Humidity: 58%

Dew point: 53 °F

Location of Port CoquitlamLocation

Historic Weather in Port Coquitlam — Graph

°F

Port Coquitlam temperature yesterday

Maximum temperature yesterday: 60 °F (at 5:00 PM)
Minimum temperature yesterday: 54 °F (at 9:00 AM)
Average temperature yesterday: 57 °F

Past Weeks' High & Low Weather Summary

 TemperatureHumidityPressure
High79 °F (May 21, 4:00 PM)98% (May 22, 5:00 AM)30.18 "Hg (May 22, 5:00 AM)
Low51 °F (May 15, 2:00 AM)37% (May 18, 6:00 PM)29.77 "Hg (May 21, 5:00 PM)
Average61 °F74%29.96 "Hg
* Reported May 11 6:00 PM — May 26 6:00 PM, Port Coquitlam, Weather by CustomWeather, © 2015

Note: Actual official high and low records may vary slightly from our data, if they occured in-between our weather recording intervals... More about our weather records

Advertising

Port Coquitlam weather history for previous 24 hours

 ConditionsComfort  
Time TempWeatherWind HumidityBarometerVisibility
6:00 PM
Tue, May 26
67 °FMild.3 mph63%30.00 "HgN/A
5:00 PM69 °FMild.3 mph61%30.01 "HgN/A
4:00 PM70 °FMild.3 mph57%30.01 "HgN/A
3:00 PM68 °FMild.5 mph60%30.03 "HgN/A
2:00 PM65 °FMild.3 mph68%30.04 "HgN/A
1:00 PM65 °FMild.2 mph71%30.05 "HgN/A
12:00 PM62 °FCool.2 mph72%30.05 "HgN/A
11:00 AM61 °FCool.2 mph78%30.05 "HgN/A
10:00 AM61 °FCool.2 mph78%30.05 "HgN/A
9:00 AM60 °FCool.2 mph78%30.05 "HgN/A
8:00 AM60 °FCool.1 mph80%30.05 "HgN/A
7:00 AM58 °FCool.1 mph92%30.04 "HgN/A
6:00 AM57 °FCool.No wind93%30.03 "HgN/A
5:00 AM56 °FCool.1 mph94%30.03 "HgN/A
4:00 AM57 °FCool.1 mph92%30.02 "HgN/A
3:00 AM57 °FCool.No wind91%30.02 "HgN/A
2:00 AM57 °FCool.1 mph92%30.02 "HgN/A
1:00 AM58 °FCool.1 mph91%30.02 "HgN/A
12:00 AM58 °FCool.2 mph90%30.02 "HgN/A
11:00 PM
Mon, May 25
58 °FCool.2 mph87%30.01 "HgN/A
10:00 PM59 °FCool.3 mph85%30.01 "HgN/A
9:00 PM59 °FCool.2 mph81%30.00 "HgN/A
8:00 PM60 °FCool.2 mph78%29.99 "HgN/A
7:00 PM60 °FCool.2 mph77%29.99 "HgN/A
Weather by CustomWeather, © 2015

See weather overviewHow to use our weather pages